MOLNIYA 3-13

Last updated on Jan. 25, 2020, 4:43 a.m. UTC

1 11896U 80063A   20023.67982862  .00000485  00000-0  15569-2 0  9992
2 11896  62.5801 248.8749 7225213 275.0228  13.6430  2.00646068289546
UTC
Height (km)
Latitude
Longitude
Inclination
Orbital Period
UTC large
Height (km)
Speed (km/s)
/
Latitude / Longitude
Inclination (degrees)
Orbital Period (minutes)
Azimuth
Elevation
Range (km)
Doppler Factor
iOS Compass Heading
iOS Angle

Next 30 passes for location: Hong Kong

Rise time Rise Azimuth (degrees) Set time Set Azimuth (degrees) Duration Max altitude (degrees)

No matching passes for this satellites